[[{"header":{"parameterUnit":"m.s-1","parameterCategory":1,"la1":30.2991,"la2":30.254,"lo1":-89.0895,"lo2":-89.0444,"dy":0.0017,"dx":0.0017,"nx":28,"ny":28,"refTime":"2023-10-22T09:00:00:Z","depth":0,"parameterNumber":2,"parameterNumberName":"U-component_of_WINDS"},"data":[0,0,0,0,0,0,0,0,0,0,0,0,0,0,0,0,0,0,0,0,0,0,0,0,0,0,0,0,0,0,0,0,0,0,0,0,0,0,0,0,0,0,0,0,0,0,0,0,0,0,0,0,0,0,0,0,0,0,-0.4493,-0.4493,0,-0.4436,-0.4436,-0.4435,-0.4398,-0.4398,-0.4397,-0.4397,-0.4338,-0.4336,-0.4335,0,0,0,0,0,0,0,0,0,0,0,0,0,-0.4569,-0.4568,-0.4494,-0.4493,-0.4492,-0.4436,-0.4436,-0.4435,-0.4398,-0.4398,-0.4397,-0.4397,-0.4338,-0.4337,-0.4335,0,0,0,0,0,0,0,0,0,0,0,0,0,-0.4527,-0.4568,-0.4494,-0.4467,-0.4464,-0.4437,-0.4436,-0.4435,-0.4398,-0.4398,-0.4397,-0.4397,-0.4339,-0.4337,-0.4335,-0.4329,0,0,-0.4328,-0.4328,0,0,0,0,0,0,0,0,-0.4529,-0.4524,-0.4472,-0.4469,-0.4465,-0.4424,-0.4441,-0.4399,-0.4398,-0.4423,-0.4397,-0.4397,-0.4367,-0.4362,-0.4352,-0.4326,-0.4324,-0.4328,-0.4327,-0.4326,-0.4326,0,0,0,0,0,0,0,-0.4532,-0.4526,-0.4471,-0.4471,-0.4467,-0.4457,-0.4451,-0.4433,-0.4397,-0.4421,-0.4418,-0.4412,-0.4365,-0.4354,-0.4351,-0.4323,-0.4328,-0.4326,-0.4325,-0.4324,-0.4288,-0.4288,0,0,0,0,0,0,-0.454,-0.4529,-0.4473,-0.4469,-0.4497,-0.4456,-0.4449,-0.4438,-0.4398,-0.4391,-0.4412,-0.441,-0.4358,-0.4353,-0.4348,-0.4338,-0.4326,-0.4324,-0.4323,-0.4287,-0.4288,-0.4288,0,0,0,0,0,0,-0.4541,-0.4535,-0.4475,-0.4498,-0.449,-0.4455,-0.4443,-0.4437,-0.4426,-0.4391,-0.4384,-0.4408,-0.4358,-0.4351,-0.4334,-0.4336,-0.4323,-0.4321,-0.4287,-0.4288,-0.4288,-0.4318,0,0,0,0,0,0,-0.4544,-0.4536,-0.4534,-0.4499,-0.4489,-0.4462,-0.4443,-0.4436,-0.4423,-0.442,-0.4385,-0.4379,-0.4357,-0.4337,-0.4332,-0.4333,-0.432,-0.4287,-0.4287,-0.4288,-0.4317,-0.432,-0.4322,0,0,0,0,0,-0.4547,-0.4545,-0.4534,-0.4527,-0.4485,-0.4462,-0.4457,-0.4431,-0.4423,-0.442,-0.4398,-0.438,-0.4336,-0.4336,-0.4329,-0.433,-0.4287,-0.4287,-0.4288,-0.4316,-0.4319,-0.4322,0,0,0,0,0,0,-0.4581,-0.454,-0.4527,-0.4514,-0.4492,-0.4456,-0.4452,-0.4436,-0.4415,-0.4413,-0.4382,-0.4375,-0.436,-0.4343,-0.4343,-0.4321,-0.4309,-0.4309,-0.4333,-0.4336,-0.4338,-0.4343,-0.4318,0,0,0,0,0,-0.4587,-0.4572,-0.4536,-0.4528,-0.4518,-0.4487,-0.4476,-0.4458,-0.4434,-0.4424,-0.44,-0.4377,-0.4358,-0.4346,-0.4326,-0.4314,-0.4306,-0.4311,-0.4314,-0.4316,-0.4316,-0.4307,-0.4309,-0.429,-0.429,-0.429,0,0,-0.4599,-0.4575,-0.4567,-0.4534,-0.4515,-0.45,-0.4479,-0.4464,-0.4452,-0.4422,-0.4404,-0.4385,-0.4357,-0.4342,-0.4335,-0.4328,-0.4319,-0.4317,-0.4319,-0.4317,-0.4308,-0.431,-0.4312,-0.429,-0.429,-0.429,0,0,-0.4613,-0.4594,-0.4584,-0.4565,-0.4537,-0.4516,-0.4514,-0.448,-0.4467,-0.4448,-0.4425,-0.441,-0.4378,-0.4359,-0.4345,-0.4351,-0.4334,-0.4345,-0.4359,-0.4351,-0.4352,-0.4353,-0.4355,-0.4356,-0.4345,-0.4345,-0.4345,0,-0.4632,-0.4608,-0.4581,-0.4567,-0.4553,-0.4525,-0.4515,-0.4498,-0.4464,-0.4455,-0.4447,-0.4406,-0.4385,-0.4365,-0.4366,-0.4356,-0.4352,-0.4349,-0.4354,-0.4355,-0.4356,-0.4357,-0.4357,-0.4347,-0.4347,-0.4347,-0.4346,0,-0.4633,-0.4616,-0.4612,-0.458,-0.4566,-0.4554,-0.4524,-0.4512,-0.4496,-0.4476,-0.4456,-0.4431,-0.4405,-0.4399,-0.4382,-0.4376,-0.4372,-0.436,-0.4347,-0.4359,-0.436,-0.436,-0.4349,-0.4349,-0.4348,-0.4348,0,0,-0.4667,-0.462,-0.4619,-0.4604,-0.457,-0.4556,-0.4543,-0.4518,-0.4508,-0.4485,-0.4473,-0.4446,-0.4434,-0.4418,-0.4399,-0.4392,-0.4398,-0.438,-0.4379,-0.4384,-0.4388,-0.4397,-0.4398,-0.4386,-0.4386,-0.4386,-0.439,0,-0.4676,-0.465,-0.4625,-0.4608,-0.4592,-0.4565,-0.4553,-0.453,-0.4511,-0.4494,-0.4473,-0.4454,-0.444,-0.443,-0.4422,-0.4399,-0.4398,-0.4398,-0.4373,-0.4373,-0.4381,-0.4398,-0.4408,-0.4413,-0.439,-0.439,-0.439,0,-0.4683,-0.4662,-0.4643,-0.461,-0.4602,-0.4592,-0.4566,-0.4551,-0.4524,-0.4511,-0.4493,-0.4473,-0.4456,-0.4445,-0.4421,-0.4422,-0.441,-0.4397,-0.4397,-0.4393,-0.4382,-0.4395,-0.4414,-0.4415,-0.439,-0.439,-0.439,0,-0.471,-0.4676,-0.466,-0.4648,-0.4609,-0.4602,-0.4586,-0.4559,-0.4545,-0.4523,-0.4513,-0.4489,-0.4476,-0.4458,-0.4431,-0.4426,-0.441,-0.4397,-0.4397,-0.4398,-0.4395,-0.4395,-0.4412,-0.4388,-0.4388,-0.4388,-0.4388,0,-0.4722,-0.4711,-0.4672,-0.4662,-0.4649,-0.462,-0.4608,-0.4589,-0.4565,-0.4551,-0.4526,-0.4512,-0.4478,-0.4461,-0.444,-0.4423,-0.4417,-0.4405,-0.44,-0.4407,-0.4409,-0.4399,-0.4398,-0.4388,-0.4388,-0.4388,-0.4388,0,-0.4749,-0.4722,-0.4703,-0.4668,-0.4658,-0.4651,-0.462,-0.4609,-0.4588,-0.457,-0.4564,-0.4531,-0.4509,-0.4481,-0.445,-0.4436,-0.4421,-0.4413,-0.443,-0.4427,-0.4428,-0.4428,-0.4439,-0.4439,-0.4416,-0.4416,-0.4416,0,-0.4759,-0.475,-0.4713,-0.4702,-0.4686,-0.4668,-0.4654,-0.4625,-0.4611,-0.4579,-0.4572,-0.4549,-0.4528,-0.4494,-0.4467,-0.4443,-0.4434,-0.4439,-0.443,-0.4437,-0.4433,-0.4434,-0.4432,-0.4441,-0.4442,-0.4442,-0.4442,0,-0.4778,-0.4765,-0.4746,-0.4722,-0.4706,-0.4685,-0.4663,-0.4656,-0.4621,-0.4607,-0.4584,-0.4569,-0.4537,-0.4513,-0.4486,-0.4467,-0.4449,-0.4445,-0.4444,-0.4451,-0.4462,-0.4455,-0.4436,-0.4445,-0.4445,-0.4445,-0.4444,-0.4444,-0.4797,-0.4787,-0.476,-0.4739,-0.472,-0.47,-0.4688,-0.4665,-0.4646,-0.4618,-0.4602,-0.4579,-0.4552,-0.4513,-0.4495,-0.4477,-0.447,-0.4468,-0.4468,-0.4468,-0.447,-0.4465,-0.4472,-0.4472,-0.4472,-0.4472,-0.4471,0,-0.4814,-0.4795,-0.4776,-0.4747,-0.473,-0.4714,-0.4689,-0.4676,-0.4657,-0.4633,-0.4613,-0.4587,-0.4564,-0.4534,-0.4509,-0.45,-0.4491,-0.4494,-0.4494,-0.449,-0.4478,-0.4481,-0.4502,-0.4502,-0.4502,-0.4502,-0.4502,-0.4502,-0.4822,-0.4805,-0.4789,-0.4761,-0.4742,-0.472,-0.4707,-0.4688,-0.4669,-0.4641,-0.4622,-0.4603,-0.4576,-0.4549,-0.4526,-0.4518,-0.451,-0.4516,-0.4505,-0.4494,-0.4491,-0.4489,-0.4492,-0.4514,-0.4514,-0.4519,-0.4519,-0.4519]},{"header":{"parameterUnit":"m.s-1","parameterCategory":1,"la1":30.2991,"la2":30.254,"lo1":-89.0895,"lo2":-89.0444,"dy":0.0017,"dx":0.0017,"nx":28,"ny":28,"refTime":"2023-10-22T09:00:00:Z","depth":0,"parameterNumber":3,"parameterNumberName":"V-component_of_WINDS"},"data":[0,0,0,0,0,0,0,0,0,0,0,0,0,0,0,0,0,0,0,0,0,0,0,0,0,0,0,0,0,0,0,0,0,0,0,0,0,0,0,0,0,0,0,0,0,0,0,0,0,0,0,0,0,0,0,0,0,0,-0.7067,-0.7068,0,-0.7107,-0.7107,-0.7108,-0.7122,-0.7121,-0.7121,-0.7121,-0.7161,-0.7162,-0.7163,0,0,0,0,0,0,0,0,0,0,0,0,0,-0.7003,-0.7004,-0.7067,-0.7068,-0.7068,-0.7107,-0.7107,-0.7108,-0.7122,-0.7121,-0.7121,-0.7121,-0.7161,-0.7162,-0.7163,0,0,0,0,0,0,0,0,0,0,0,0,0,-0.7035,-0.7004,-0.7067,-0.708,-0.7081,-0.7107,-0.7107,-0.7108,-0.7122,-0.7121,-0.7121,-0.7121,-0.716,-0.7162,-0.7164,-0.7179,0,0,-0.7169,-0.717,0,0,0,0,0,0,0,0,-0.7034,-0.7038,-0.7077,-0.7079,-0.7081,-0.7109,-0.7099,-0.7132,-0.7122,-0.7106,-0.7121,-0.7121,-0.7144,-0.7147,-0.7155,-0.7181,-0.7183,-0.7169,-0.717,-0.7171,-0.7172,0,0,0,0,0,0,0,-0.7031,-0.7036,-0.7083,-0.7078,-0.708,-0.7083,-0.7088,-0.7105,-0.7126,-0.7108,-0.7109,-0.7113,-0.7145,-0.7153,-0.7156,-0.7183,-0.7169,-0.7171,-0.7172,-0.7173,-0.7224,-0.7225,0,0,0,0,0,0,-0.7027,-0.7034,-0.7082,-0.7084,-0.7056,-0.7085,-0.7089,-0.71,-0.7126,-0.7129,-0.7113,-0.7114,-0.715,-0.7154,-0.7157,-0.7177,-0.7171,-0.7173,-0.7174,-0.7224,-0.7225,-0.7225,0,0,0,0,0,0,-0.7026,-0.7031,-0.708,-0.7059,-0.7066,-0.7086,-0.7098,-0.7101,-0.7109,-0.713,-0.7134,-0.7118,-0.715,-0.7155,-0.7174,-0.7179,-0.7174,-0.7175,-0.7224,-0.7224,-0.7225,-0.7217,0,0,0,0,0,0,-0.7024,-0.7031,-0.7037,-0.706,-0.7067,-0.7096,-0.7098,-0.7102,-0.7113,-0.7113,-0.7136,-0.7139,-0.715,-0.7171,-0.7176,-0.7181,-0.7177,-0.7223,-0.7224,-0.7225,-0.7217,-0.7217,-0.7217,0,0,0,0,0,-0.7021,-0.7033,-0.7037,-0.7043,-0.7075,-0.7096,-0.71,-0.7113,-0.7113,-0.7119,-0.7133,-0.7138,-0.7178,-0.7173,-0.7178,-0.7184,-0.7223,-0.7224,-0.7225,-0.7217,-0.7217,-0.7217,0,0,0,0,0,0,-0.701,-0.7036,-0.7041,-0.706,-0.7076,-0.7098,-0.7107,-0.7113,-0.7129,-0.7129,-0.7144,-0.7149,-0.7167,-0.7178,-0.7172,-0.7201,-0.7201,-0.7202,-0.7193,-0.7194,-0.7194,-0.7191,-0.7178,0,0,0,0,0,-0.701,-0.7025,-0.7047,-0.7061,-0.7069,-0.7087,-0.7096,-0.7105,-0.7122,-0.7128,-0.7143,-0.7159,-0.7175,-0.7185,-0.7201,-0.7219,-0.7224,-0.7226,-0.7226,-0.7226,-0.7227,-0.7238,-0.7239,-0.7227,-0.7227,-0.7227,0,0,-0.7009,-0.7025,-0.7034,-0.706,-0.7073,-0.7088,-0.7092,-0.7108,-0.7119,-0.713,-0.7149,-0.7161,-0.7179,-0.7198,-0.7207,-0.7207,-0.7232,-0.7227,-0.7227,-0.7228,-0.7238,-0.724,-0.7241,-0.7228,-0.7227,-0.7227,0,0,-0.7016,-0.703,-0.7044,-0.7057,-0.7077,-0.7088,-0.7092,-0.7113,-0.7121,-0.7141,-0.715,-0.7163,-0.719,-0.7203,-0.7214,-0.7226,-0.7231,-0.723,-0.7231,-0.7241,-0.7242,-0.7243,-0.7247,-0.7249,-0.7232,-0.7232,-0.7232,0,-0.7012,-0.7036,-0.705,-0.7065,-0.7076,-0.7088,-0.7102,-0.7114,-0.7138,-0.7145,-0.7146,-0.718,-0.7193,-0.7215,-0.7218,-0.7226,-0.723,-0.7228,-0.7241,-0.7242,-0.7243,-0.7247,-0.7249,-0.7231,-0.7231,-0.7231,-0.7231,0,-0.7031,-0.7047,-0.7055,-0.7079,-0.7091,-0.7105,-0.7122,-0.7132,-0.714,-0.7151,-0.7171,-0.7187,-0.7207,-0.7213,-0.722,-0.7236,-0.7235,-0.7238,-0.7238,-0.7244,-0.7248,-0.725,-0.7231,-0.7231,-0.7231,-0.7231,0,0,-0.7031,-0.7062,-0.7065,-0.7076,-0.7099,-0.7111,-0.7127,-0.7146,-0.7154,-0.7171,-0.7184,-0.7207,-0.721,-0.7221,-0.723,-0.7239,-0.7247,-0.7241,-0.7242,-0.7241,-0.7265,-0.7263,-0.7265,-0.7252,-0.7252,-0.7252,-0.7264,0,-0.704,-0.7068,-0.7081,-0.7103,-0.7118,-0.713,-0.7143,-0.7158,-0.717,-0.7184,-0.7196,-0.7212,-0.7215,-0.7222,-0.7231,-0.7244,-0.7252,-0.7244,-0.7264,-0.7264,-0.7258,-0.7267,-0.7264,-0.7274,-0.7266,-0.7266,-0.7266,0,-0.7055,-0.7072,-0.7095,-0.7117,-0.7124,-0.7135,-0.7154,-0.7168,-0.7185,-0.7193,-0.7206,-0.7215,-0.7231,-0.7231,-0.7253,-0.7247,-0.7256,-0.7264,-0.7264,-0.7267,-0.7265,-0.7269,-0.7278,-0.7279,-0.7269,-0.7269,-0.7268,0,-0.7053,-0.7081,-0.7099,-0.7107,-0.7133,-0.7141,-0.7152,-0.717,-0.7181,-0.7197,-0.7204,-0.7222,-0.7232,-0.7246,-0.7259,-0.7257,-0.728,-0.7281,-0.7287,-0.7287,-0.7291,-0.7291,-0.7301,-0.7297,-0.7297,-0.7297,-0.7297,0,-0.7062,-0.7076,-0.7098,-0.7109,-0.7125,-0.714,-0.7155,-0.7167,-0.7183,-0.7196,-0.7207,-0.7219,-0.7236,-0.7251,-0.7261,-0.7278,-0.7283,-0.7289,-0.7292,-0.7288,-0.7287,-0.7294,-0.7293,-0.7298,-0.7297,-0.7297,-0.7297,0,-0.7061,-0.7077,-0.7097,-0.712,-0.7126,-0.7137,-0.7156,-0.7167,-0.7179,-0.7196,-0.72,-0.7219,-0.7237,-0.7252,-0.7275,-0.7282,-0.7299,-0.7303,-0.7293,-0.7295,-0.73,-0.7299,-0.7315,-0.7318,-0.7312,-0.7312,-0.7312,0,-0.7066,-0.7077,-0.7101,-0.7111,-0.7122,-0.7138,-0.7149,-0.7164,-0.7176,-0.7197,-0.7205,-0.7224,-0.7239,-0.7266,-0.7282,-0.7299,-0.7303,-0.7308,-0.7306,-0.7302,-0.7303,-0.7302,-0.7303,-0.7307,-0.7307,-0.7307,-0.7307,0,-0.7073,-0.708,-0.7096,-0.7115,-0.7128,-0.7143,-0.7159,-0.7166,-0.7184,-0.7196,-0.7215,-0.7227,-0.725,-0.7268,-0.7288,-0.7299,-0.7306,-0.7308,-0.731,-0.7306,-0.73,-0.7304,-0.7293,-0.7307,-0.7307,-0.7307,-0.7307,-0.7307,-0.7075,-0.7086,-0.7104,-0.7122,-0.7135,-0.715,-0.7161,-0.7175,-0.719,-0.7211,-0.7219,-0.7237,-0.7255,-0.7282,-0.7293,-0.7308,-0.7309,-0.7312,-0.7313,-0.7314,-0.7313,-0.7298,-0.7311,-0.7311,-0.7311,-0.7311,-0.7311,0,-0.7082,-0.7095,-0.7111,-0.7133,-0.7146,-0.7153,-0.717,-0.7181,-0.7197,-0.7213,-0.7228,-0.7249,-0.7267,-0.7284,-0.7302,-0.7311,-0.7315,-0.7315,-0.7314,-0.7317,-0.7311,-0.7307,-0.7312,-0.7312,-0.7312,-0.7312,-0.7312,-0.7312,-0.7088,-0.7106,-0.7115,-0.714,-0.7152,-0.7171,-0.718,-0.7194,-0.7207,-0.7229,-0.7244,-0.7255,-0.7272,-0.7292,-0.7308,-0.7312,-0.7319,-0.7318,-0.7324,-0.7318,-0.7317,-0.7317,-0.7313,-0.7319,-0.7319,-0.7328,-0.7328,-0.7328]}]]